Location: Aufkirchen
(47.9603°N, 11.3653°E)
Time: 16:07:46
(UTC+02:00)

Vanguard 2 Rocket - Visible Passes

Search period start: 12 June 2021 00:00
Search period end: 22 June 2021 00:00
Orbit: 554 x 3325 km, 32.9° (Epoch: 12 June)

Date Brightness Start Highest point End Pass type
(mag) Time Alt. Az. Time Alt. Az. Time Alt. Az.
12 Jun 8.3 01:37:10 10° WSW 01:46:05 28° SSW 01:47:52 26° S visible
12 Jun 8.5 03:58:46 12° SSW 03:58:46 12° SSW 04:00:03 10° SSW visible
12 Jun 9.3 22:19:30 10° SW 22:32:29 30° SSE 22:41:12 10° ESE visible
13 Jun 8.6 00:35:18 10° WSW 00:46:22 33° S 00:51:37 18° SE visible
13 Jun 8.7 02:52:37 10° WSW 03:04:24 - SSE 02:57:24 19° SW visible
13 Jun 8.9 23:33:23 10° WSW 23:46:19 35° S 23:54:26 10° ESE visible
14 Jun 8.4 01:50:31 10° WSW 01:59:27 27° SSW 02:00:51 26° S visible
14 Jun 9.2 22:31:34 10° SW 22:45:57 36° S 22:55:17 10° ESE visible
15 Jun 8.6 00:48:23 10° WSW 00:59:48 34° SSW 01:04:12 22° SSE visible
15 Jun 9.1 03:06:47 10° WSW 03:09:57 15° SW 03:09:57 15° SW visible
15 Jun 8.8 23:46:12 10° WSW 23:59:46 38° S 00:07:30 13° SE visible
16 Jun 8.6 02:04:07 10° WSW 02:12:39 24° SSW 02:13:14 24° SSW visible
16 Jun 9.1 22:44:05 10° WSW 22:59:23 40° S 23:09:07 10° ESE visible
17 Jun 8.6 01:01:42 10° WSW 01:13:05 32° SSW 01:16:30 25° SSE visible
17 Jun 9.5 03:22:05 10° WSW 03:22:15 10° WSW 03:22:15 10° WSW visible
17 Jun 9.4 21:42:12 10° SW 21:58:38 40° S 22:09:44 10° ESE visible
17 Jun 8.9 23:59:17 10° WSW 00:13:07 38° SSW 00:19:44 19° SE visible
18 Jun 9.0 02:18:04 10° WSW 02:25:30 20° SW 02:25:30 20° SW visible
18 Jun 9.1 22:56:56 10° WSW 23:12:43 42° S 23:22:48 10° ESE visible
19 Jun 8.8 01:15:12 10° W 01:26:12 28° SSW 01:28:43 26° S visible
19 Jun 9.4 21:54:47 10° WSW 22:11:57 44° S 22:23:30 10° ESE visible
20 Jun 9.0 00:12:33 10° WSW 00:26:19 36° SSW 00:31:55 23° SSE visible
20 Jun 9.4 02:32:42 10° WSW 02:37:40 15° SW 02:37:40 15° SW visible
20 Jun 9.2 23:10:01 10° WSW 23:25:59 42° SSW 23:35:07 15° SE visible
21 Jun 9.1 01:29:02 10° W 01:39:06 23° SW 01:40:52 23° SSW visible
21 Jun 9.4 22:07:41 10° WSW 22:25:13 45° S 22:37:05 10° ESE visible
